Flag for United Kingdom Weather past 2 weeks in Plymouth, England, United Kingdom

50 °F

Passing clouds.

Feels Like: 45 °F
Forecast: N/A
Wind: 13 mph from Northwest

Location: Exeter Airport

Current Time: Nov 24, 2015 at 10:19:30 PM

Latest Report: Nov 24, 2015 at 9:20 PM

Visibility: N/A

Pressure: 29.92 "Hg

Humidity: 94%

Dew point: 48 °F

Location of PlymouthLocation

Historic Weather in Plymouth — Graph


Plymouth temperature yesterday

Maximum temperature yesterday: 46 °F (at 1:20 PM)
Minimum temperature yesterday: 27 °F (at 7:50 AM)
Average temperature yesterday: 41 °F

Past Weeks' High & Low Weather Summary

High63 °F (Nov 17, 1:20 PM)100% (Nov 10, 6:20 AM)30.36 "Hg (Nov 10, 6:20 AM)
Low27 °F (Nov 23, 7:50 AM)53% (Nov 21, 11:20 AM)29.59 "Hg (Nov 17, 11:50 AM)
Average52 °F88%30.01 "Hg
* Reported Nov 9 8:20 PM — Nov 24 8:50 PM, Plymouth, Weather by CustomWeather, © 2015

Note: Actual official high and low records may vary slightly from our data, if they occured in-between our weather recording intervals... More about our weather records


Plymouth weather history for previous 24 hours

Time TempWeatherWind HumidityBarometerVisibility
8:50 PM
Tue, Nov 24
50 °FPassing clouds.14 mph94%29.92 "HgN/A
8:20 PM50 °FPassing clouds.15 mph94%29.92 "HgN/A
7:50 PM48 °FPassing clouds.10 mph100%29.92 "HgN/A
7:20 PM48 °FPassing clouds.9 mph100%29.92 "HgN/A
6:50 PM50 °FSprinkles. Passing clouds.10 mph88%29.92 "Hg4 mi
6:20 PM50 °FPassing clouds.14 mph94%29.92 "HgN/A
5:50 PM48 °FPassing clouds.12 mph100%29.92 "HgN/A
5:20 PM48 °FPassing clouds.12 mph94%29.92 "HgN/A
4:50 PM48 °FPassing clouds.14 mph94%29.89 "Hg6 mi
4:20 PM50 °FLight rain. Partly cloudy.15 mph94%29.92 "HgN/A
3:50 PM50 °FBroken clouds.14 mph94%29.92 "HgN/A
3:20 PM50 °FScattered clouds.13 mph94%29.92 "HgN/A
2:50 PM50 °FBroken clouds.14 mph88%29.92 "HgN/A
2:20 PM50 °FBroken clouds.12 mph88%29.92 "HgN/A
1:50 PM50 °FBroken clouds.10 mph88%29.95 "HgN/A
1:20 PM50 °FScattered clouds.10 mph88%29.95 "HgN/A
12:50 PM48 °FScattered clouds.8 mph100%29.95 "HgN/A
12:20 PM48 °FDrizzle. Broken clouds.8 mph100%29.98 "HgN/A
11:50 AM50 °FSprinkles. Scattered clouds.9 mph88%29.98 "HgN/A
11:20 AM48 °FScattered clouds.12 mph94%29.98 "HgN/A
10:50 AM48 °FScattered showers. Broken clouds.9 mph87%29.98 "HgN/A
10:20 AM48 °FPartly sunny.5 mph87%29.98 "HgN/A
9:50 AM48 °FScattered clouds.7 mph87%29.98 "HgN/A
9:20 AM46 °FPassing clouds.9 mph87%29.98 "HgN/A
8:50 AM46 °FPassing clouds.7 mph87%29.98 "HgN/A
8:20 AM46 °FPassing clouds.8 mph87%29.98 "HgN/A
7:50 AM46 °FPassing clouds.9 mph87%29.98 "HgN/A
7:20 AM46 °FPassing clouds.9 mph93%29.98 "HgN/A
6:50 AM48 °FPassing clouds.8 mph94%29.98 "HgN/A
6:20 AM48 °FPassing clouds.15 mph94%29.95 "HgN/A
5:50 AM52 °FPassing clouds.14 mph100%29.95 "HgN/A
1:50 AM50 °FLight rain. Partly cloudy.14 mph100%30.01 "HgN/A
1:20 AM48 °FLight rain. Passing clouds.13 mph100%30.01 "HgN/A
12:50 AM48 °FLight rain. Passing clouds.13 mph100%30.04 "HgN/A
12:20 AM46 °FLight rain. Passing clouds.9 mph100%30.07 "HgN/A
11:50 PM
Mon, Nov 23
46 °FLight rain. Partly cloudy.8 mph93%30.07 "HgN/A
11:20 PM45 °FPartly cloudy.3 mph100%30.09 "HgN/A
10:20 PM45 °FLight rain. Passing clouds.7 mph93%30.12 "HgN/A
Weather by CustomWeather, © 2015

See weather overviewHow to use our weather pages